[[{"header":{"parameterUnit":"m.s-1","parameterCategory":1,"la1":30.2991,"la2":30.254,"lo1":-89.0895,"lo2":-89.0444,"dy":0.0017,"dx":0.0017,"nx":28,"ny":28,"refTime":"2026-02-25T09:00:00:Z","depth":0,"parameterNumber":2,"parameterNumberName":"U-component_of_WINDS"},"data":[0,0,0,0,0,0,0,0,0,0,0,0,0,0,0,0,0,0,0,0,0,0,0,0,0,0,0,0,0,0,0,0,0,0,0,0,0,0,0,0,0,0,0,0,0,0,0,0,0,0,0,0,0,0,0,0,0,0,1.1655,1.1657,0,1.1765,1.1767,1.1768,1.1798,1.1797,1.1796,1.1796,1.1913,1.1917,1.192,0,0,0,0,0,0,0,0,0,0,0,0,0,1.1476,1.1479,1.1655,1.1657,1.1658,1.1765,1.1767,1.1768,1.1798,1.1797,1.1796,1.1795,1.1912,1.1916,1.1921,0,0,0,0,0,0,0,0,0,0,0,0,0,1.1567,1.148,1.1655,1.1686,1.1689,1.1765,1.1767,1.1769,1.1798,1.1797,1.1796,1.1795,1.191,1.1916,1.1921,1.1976,0,0,1.1938,1.1941,0,0,0,0,0,0,0,0,1.1562,1.1573,1.168,1.1684,1.1688,1.1767,1.1747,1.1838,1.1798,1.1757,1.1796,1.1794,1.1865,1.1875,1.1898,1.1981,1.1986,1.1939,1.1942,1.1945,1.1946,0,0,0,0,0,0,0,1.1555,1.1569,1.1699,1.1681,1.1686,1.1696,1.1707,1.1764,1.1816,1.176,1.1763,1.1775,1.1868,1.1892,1.1901,1.1988,1.1939,1.1944,1.1947,1.1949,1.2124,1.2125,0,0,0,0,0,0,1.1543,1.1563,1.1696,1.1702,1.1621,1.1699,1.1713,1.1742,1.1815,1.1825,1.1776,1.1776,1.1883,1.1894,1.1905,1.1974,1.1945,1.195,1.1953,1.2122,1.2124,1.2125,0,0,0,0,0,0,1.1539,1.1555,1.1691,1.1634,1.1652,1.1704,1.1737,1.1745,1.177,1.1826,1.1836,1.1791,1.1883,1.1897,1.1958,1.1979,1.1952,1.1958,1.2121,1.2123,1.2125,1.2113,0,0,0,0,0,0,1.1534,1.1553,1.1573,1.1634,1.1654,1.1741,1.1738,1.1748,1.1779,1.178,1.1843,1.1853,1.1883,1.1949,1.1963,1.1986,1.1962,1.2119,1.2122,1.2124,1.2112,1.2114,1.2116,0,0,0,0,0,1.1527,1.1566,1.1574,1.1589,1.168,1.1742,1.1754,1.1786,1.178,1.1802,1.1838,1.1851,1.1974,1.1955,1.1971,1.1996,1.2118,1.2121,1.2124,1.2111,1.2114,1.2116,0,0,0,0,0,0,1.1507,1.1574,1.1584,1.1643,1.1686,1.1746,1.1774,1.1788,1.1835,1.1835,1.1874,1.1888,1.1947,1.1978,1.1956,1.2053,1.2047,1.2053,1.2031,1.2034,1.2037,1.2028,1.1967,0,0,0,0,0,1.151,1.1552,1.1609,1.1656,1.1677,1.1722,1.175,1.1771,1.1818,1.1837,1.1878,1.1925,1.1974,1.2006,1.2054,1.2116,1.2132,1.2141,1.2144,1.2145,1.2151,1.2187,1.2193,1.2135,1.2135,1.2135,0,0,1.1515,1.1557,1.1582,1.1653,1.1689,1.1734,1.1737,1.1785,1.1819,1.1845,1.1905,1.1937,1.1992,1.2053,1.2083,1.2081,1.217,1.2149,1.215,1.2154,1.2191,1.2196,1.2201,1.2137,1.2136,1.2136,0,0,1.1548,1.1583,1.1627,1.1663,1.1717,1.1747,1.1757,1.1816,1.1838,1.1898,1.1919,1.1961,1.2045,1.2084,1.2114,1.2163,1.2177,1.2178,1.219,1.2225,1.223,1.2234,1.2253,1.2259,1.2183,1.2183,1.2183,0,1.1549,1.1616,1.1648,1.1694,1.1726,1.175,1.1795,1.1829,1.1897,1.1919,1.1916,1.2022,1.2061,1.2132,1.2144,1.2168,1.2183,1.2171,1.2226,1.2231,1.2236,1.2254,1.2261,1.2182,1.2182,1.2182,1.2183,0,1.1614,1.1661,1.169,1.1753,1.1788,1.1834,1.1874,1.1906,1.1924,1.1955,1.2017,1.2064,1.2123,1.2142,1.2161,1.2217,1.2215,1.2218,1.2212,1.224,1.2258,1.2266,1.2182,1.2182,1.2182,1.2182,0,0,1.1638,1.1718,1.1729,1.1758,1.182,1.1858,1.1906,1.1962,1.1989,1.2036,1.2078,1.2148,1.2152,1.2187,1.2211,1.2241,1.2279,1.2242,1.2244,1.2248,1.2346,1.2343,1.2351,1.2288,1.229,1.2291,1.2342,0,1.1679,1.1763,1.1794,1.1864,1.1908,1.1933,1.1975,1.2018,1.2048,1.2092,1.2126,1.2176,1.2177,1.2198,1.2229,1.2267,1.2299,1.2264,1.233,1.2332,1.2316,1.236,1.2357,1.2402,1.2349,1.235,1.2351,0,1.1739,1.1785,1.1858,1.1916,1.1936,1.1973,1.2028,1.2068,1.2119,1.2139,1.2178,1.22,1.2253,1.2243,1.2318,1.2293,1.2322,1.2345,1.2347,1.2356,1.2343,1.237,1.2418,1.2425,1.2362,1.2361,1.236,0,1.1749,1.183,1.1885,1.191,1.1978,1.2004,1.2034,1.2083,1.2116,1.2164,1.2186,1.2241,1.2271,1.2313,1.235,1.2339,1.2422,1.2415,1.2442,1.2441,1.2458,1.2457,1.2512,1.2475,1.2475,1.2475,1.2475,0,1.1793,1.1837,1.1891,1.1925,1.1976,1.2012,1.2063,1.2094,1.2139,1.2181,1.2205,1.2245,1.229,1.2336,1.2365,1.2423,1.2437,1.2456,1.2463,1.2454,1.2452,1.2474,1.2472,1.2477,1.2477,1.2476,1.2476,0,1.1813,1.1851,1.1913,1.1972,1.1988,1.2024,1.2076,1.2111,1.2142,1.2195,1.221,1.226,1.2315,1.2355,1.2427,1.2447,1.251,1.2517,1.2492,1.2496,1.2521,1.2518,1.2593,1.2605,1.2559,1.256,1.256,0,1.1839,1.1874,1.1937,1.1966,1.1996,1.2043,1.2076,1.2113,1.2147,1.2208,1.2236,1.2293,1.234,1.2428,1.2472,1.2527,1.2536,1.2559,1.2545,1.2535,1.2538,1.2536,1.254,1.2561,1.2561,1.2561,1.2562,0,1.1881,1.1898,1.1943,1.1996,1.2035,1.2078,1.2123,1.2146,1.2191,1.2228,1.2284,1.2321,1.2394,1.2451,1.2511,1.2544,1.2561,1.2566,1.2575,1.2566,1.2551,1.2561,1.2498,1.2564,1.2564,1.2563,1.2563,1.2563,1.1905,1.1938,1.1988,1.2039,1.2076,1.2117,1.2153,1.2188,1.2235,1.2297,1.2316,1.2375,1.2427,1.2509,1.2543,1.2591,1.259,1.2603,1.2607,1.261,1.261,1.2542,1.2602,1.2602,1.2602,1.2602,1.2602,0,1.1949,1.1983,1.2029,1.209,1.213,1.2141,1.2191,1.2225,1.2275,1.2322,1.2368,1.2433,1.2488,1.2537,1.2595,1.2624,1.2633,1.2638,1.2637,1.2644,1.2606,1.2593,1.2629,1.2629,1.2629,1.2629,1.2629,1.2629,1.1977,1.2033,1.2056,1.2131,1.2165,1.2221,1.2249,1.2288,1.2325,1.2396,1.2442,1.2473,1.2521,1.2583,1.2635,1.2648,1.2669,1.2671,1.2686,1.265,1.2647,1.2644,1.2631,1.2675,1.2675,1.2721,1.2721,1.2721]},{"header":{"parameterUnit":"m.s-1","parameterCategory":1,"la1":30.2991,"la2":30.254,"lo1":-89.0895,"lo2":-89.0444,"dy":0.0017,"dx":0.0017,"nx":28,"ny":28,"refTime":"2026-02-25T09:00:00:Z","depth":0,"parameterNumber":3,"parameterNumberName":"V-component_of_WINDS"},"data":[0,0,0,0,0,0,0,0,0,0,0,0,0,0,0,0,0,0,0,0,0,0,0,0,0,0,0,0,0,0,0,0,0,0,0,0,0,0,0,0,0,0,0,0,0,0,0,0,0,0,0,0,0,0,0,0,0,0,4.3389,4.3388,0,4.3366,4.3366,4.3365,4.334,4.334,4.3339,4.3339,4.3314,4.3313,4.3313,0,0,0,0,0,0,0,0,0,0,0,0,0,4.3409,4.3409,4.3389,4.3388,4.3388,4.3366,4.3366,4.3365,4.334,4.334,4.3339,4.3339,4.3314,4.3313,4.3313,0,0,0,0,0,0,0,0,0,0,0,0,0,4.3395,4.3409,4.3389,4.3373,4.3371,4.3366,4.3366,4.3365,4.334,4.334,4.3339,4.3338,4.3314,4.3313,4.3313,4.3321,0,0,4.3311,4.3311,0,0,0,0,0,0,0,0,4.3395,4.3394,4.3375,4.3374,4.3372,4.3355,4.3364,4.335,4.334,4.3352,4.3339,4.3338,4.3328,4.3326,4.3323,4.332,4.3319,4.3311,4.3311,4.3311,4.3311,0,0,0,0,0,0,0,4.3396,4.3395,4.338,4.3375,4.3373,4.3366,4.3364,4.3361,4.3343,4.3351,4.3349,4.3347,4.3327,4.3324,4.3322,4.3318,4.3311,4.3311,4.3311,4.331,4.3322,4.3323,0,0,0,0,0,0,4.34,4.3396,4.338,4.3379,4.3383,4.3367,4.3364,4.3361,4.3343,4.334,4.3347,4.3346,4.3325,4.3323,4.3321,4.3331,4.3311,4.331,4.331,4.3321,4.3322,4.3323,0,0,0,0,0,0,4.3401,4.3399,4.3381,4.3387,4.3384,4.3367,4.3364,4.3361,4.3358,4.334,4.3337,4.3347,4.3324,4.3322,4.3322,4.3329,4.331,4.331,4.3321,4.3322,4.3322,4.3349,0,0,0,0,0,0,4.3401,4.3399,4.3402,4.3387,4.3384,4.3382,4.3365,4.3361,4.3357,4.3355,4.334,4.3336,4.3324,4.3323,4.3321,4.3328,4.3309,4.332,4.3321,4.3322,4.3347,4.335,4.3353,0,0,0,0,0,4.3402,4.341,4.3403,4.3401,4.3387,4.3383,4.3381,4.3367,4.3358,4.3361,4.335,4.3337,4.3329,4.3323,4.3321,4.3328,4.3319,4.3321,4.3322,4.3346,4.335,4.3353,0,0,0,0,0,0,4.3425,4.3408,4.3399,4.3402,4.3395,4.3379,4.3382,4.3371,4.3365,4.3363,4.3345,4.3341,4.3344,4.3335,4.3329,4.3336,4.3322,4.3323,4.3341,4.3345,4.3348,4.335,4.3309,0,0,0,0,0,4.3431,4.3429,4.3414,4.3418,4.3415,4.3399,4.3396,4.3386,4.3377,4.3373,4.3362,4.3353,4.3349,4.3346,4.3341,4.3346,4.3343,4.335,4.3353,4.3356,4.3357,4.336,4.3364,4.3327,4.3327,4.3327,0,0,4.3443,4.3433,4.3432,4.3422,4.3415,4.3414,4.3396,4.3395,4.3394,4.3373,4.3372,4.3364,4.3353,4.3356,4.3357,4.3349,4.3366,4.3357,4.336,4.3359,4.3362,4.3366,4.3369,4.3328,4.3328,4.3328,0,0,4.3463,4.3455,4.3458,4.3452,4.3441,4.3431,4.3432,4.3418,4.3412,4.3411,4.3396,4.3394,4.3386,4.338,4.3375,4.3395,4.3383,4.3393,4.3409,4.3413,4.3416,4.3418,4.3426,4.3429,4.3394,4.3394,4.3394,0,4.3478,4.3476,4.3461,4.3462,4.3458,4.344,4.3443,4.3437,4.3425,4.3423,4.3416,4.3407,4.3398,4.34,4.3405,4.3401,4.3402,4.3395,4.3417,4.3419,4.3421,4.3428,4.3431,4.3396,4.3396,4.3396,4.3395,0,4.3496,4.3495,4.3499,4.3489,4.3486,4.3488,4.3473,4.3471,4.3462,4.3452,4.3453,4.3442,4.3435,4.3434,4.3424,4.3435,4.3431,4.342,4.3406,4.3426,4.3433,4.3436,4.3398,4.3397,4.3397,4.3397,0,0,4.353,4.3513,4.3515,4.3511,4.3499,4.3497,4.3498,4.3492,4.3492,4.3484,4.3485,4.348,4.3471,4.3466,4.3455,4.3458,4.3475,4.3447,4.3446,4.3453,4.3488,4.3497,4.35,4.3467,4.3468,4.3468,4.3489,0,4.3549,4.3551,4.3538,4.3543,4.3543,4.3526,4.3527,4.352,4.3511,4.3509,4.3499,4.3497,4.3484,4.3481,4.3483,4.3473,4.3482,4.3471,4.3468,4.3469,4.3473,4.3503,4.3512,4.3532,4.3492,4.3492,4.3492,0,4.3571,4.3566,4.3572,4.3561,4.356,4.3561,4.3555,4.3553,4.3545,4.3538,4.3534,4.3522,4.3522,4.3509,4.351,4.3503,4.3501,4.3496,4.3497,4.3496,4.3482,4.3505,4.3538,4.3542,4.3496,4.3496,4.3495,0,4.3597,4.3592,4.3595,4.3591,4.3578,4.358,4.3574,4.3565,4.3563,4.3557,4.3556,4.355,4.3547,4.3543,4.353,4.3522,4.3533,4.3519,4.3529,4.3529,4.3532,4.3532,4.3567,4.353,4.353,4.353,4.353,0,4.362,4.3624,4.3606,4.3608,4.3613,4.3598,4.3603,4.3595,4.3588,4.3588,4.3573,4.3573,4.3556,4.3554,4.3544,4.3547,4.3546,4.3541,4.3538,4.3543,4.3543,4.3541,4.354,4.353,4.353,4.353,4.353,0,4.3649,4.3638,4.364,4.3627,4.3624,4.3628,4.3618,4.3619,4.361,4.3611,4.361,4.3596,4.3593,4.358,4.3574,4.3567,4.3574,4.3568,4.3578,4.3576,4.3587,4.3587,4.3622,4.3627,4.3586,4.3587,4.3587,0,4.3665,4.3668,4.3657,4.3656,4.3651,4.365,4.3648,4.3634,4.3633,4.3624,4.3626,4.3623,4.362,4.3617,4.3606,4.3602,4.3596,4.3609,4.3596,4.3601,4.3598,4.3598,4.3599,4.3612,4.3613,4.3613,4.3614,0,4.3695,4.3689,4.3687,4.3683,4.3681,4.3677,4.3672,4.3673,4.3657,4.3656,4.3654,4.3652,4.3647,4.3644,4.3638,4.3632,4.3621,4.3618,4.362,4.3625,4.3631,4.3629,4.3587,4.3617,4.3617,4.3617,4.3616,4.3616,4.3718,4.3721,4.3714,4.3712,4.3707,4.3703,4.3704,4.3696,4.3694,4.369,4.3681,4.3681,4.3673,4.3664,4.3659,4.3659,4.3652,4.3655,4.3656,4.3657,4.366,4.3631,4.3658,4.3657,4.3657,4.3657,4.3657,0,4.3748,4.3743,4.3741,4.3736,4.3735,4.3724,4.3719,4.3719,4.3719,4.3713,4.371,4.3708,4.3706,4.3695,4.3692,4.3694,4.3688,4.3693,4.3693,4.3692,4.3665,4.3664,4.3698,4.3698,4.3698,4.3698,4.3698,4.3698,4.3764,4.3768,4.3761,4.3763,4.3757,4.3757,4.3755,4.3752,4.3747,4.3746,4.3744,4.3738,4.373,4.3726,4.3724,4.3721,4.372,4.3727,4.3723,4.3698,4.3694,4.369,4.3689,4.3727,4.3727,4.375,4.375,4.375]}]]